sat.trackr.live / text

‹ back to catalog

STARLINK-11549 [DTC]

NORAD 62832 · 2025-019D

PAYLOAD ACTIVE UNKNOWN

§ Identity

Operator
Country
US
Launch date
2025-01-27
Launch site
AFETR
Launch vehicle
Mass (kg)
RCS (m²)

Purposes: comms

External: N2YO · Heavens-Above · Gunter

§ Orbital elements

Epoch: 2026-05-25T05:09:48.135744Z

Period
91.67 min
Inclination
42.9998°
Eccentricity
0.0001672
Mean motion
15.70922260 rev/d
Perigee alt
355.1 km
Apogee alt
357.4 km
Semi-major
6,734.4 km
B*
2.0765e-3
RAAN
204.9423°
Arg perigee
249.7639°
Mean anomaly
110.3049°
Rev number
7,591

§ Raw data

STARLINK-11549 [DTC]1 62832U 25019D   26145.21514046  .00275983  00000+0  20765-2 0  99942 62832  42.9998 204.9423 0001672 249.7639 110.3049 15.70922260 75918

JSON: /api/v1/satellites/62832 · /tle

For live sub-satellite position, see the globe view (requires WebGL).

§ Visibility from observer

Set your observer location to see the next 7 days of passes ≥ 10°. The values pass through the URL so the page stays shareable.

No JS? Fill the form by hand. The geolocation button needs JavaScript.